Regional Weather Roundup
Issued by NWS

Home | Current Version | Previous Version | Text Only | Print | Product List | Glossary Off
Versions: 1 2 3 4 5 6 7 8 9 10 11 12 13 14 15 16 17 18 19 20 21 22 23 24 25 26 27 28 29 30 31 32 33 34 35 36 37 38 39 40 41 42 43 44 45 46 47 48 49 50

851
ASUS44 KJAN 230910
RWRMS

MISSISSIPPI HOURLY WEATHER ROUNDUP
NATIONAL WEATHER SERVICE JACKSON MS
400 AM CDT THU OCT 23 2014

NOTE: "FAIR: INDICATES FEW OR NO CLOUDS BELOW 12,000 FEET WITH NO
SIGNIFICANT WEATHER AND/OR OBSTRUCTIONS TO VISIBILITY.

MSZ001>002-007>008-010>013-018>021-025>028-034>036-231000-
NORTHWEST MISSISSIPPI

CITY           SKY/WX    TMP DP  RH WIND       PRES   REMARKS
CLARKSDALE     FAIR      43  43 100 N3        30.17R
CLEVELAND      FAIR      46  45  97 NE5       30.15R
GREENWOOD      CLEAR     42  40  92 CALM      30.14F FOG
GREENVILLE     CLEAR     45  43  93 N5        30.14S
GRENADA          N/A    N/A N/A N/A MISG        N/A
OLIVE BRANCH   CLEAR     43  43 100 NE3       30.17F
OXFORD         FAIR      39  39 100 CALM      30.17S
TUNICA         MOSUNNY   41  39  93 N3        30.17S
$$

MSZ003>006-009-014>017-022>024-029>033-037>039-231000-
NORTHEAST MISSISSIPPI

CITY           SKY/WX    TMP DP  RH WIND       PRES   REMARKS
COLUMBUS AFB   CLEAR     44  42  94 CALM      30.15S
CORINTH        FAIR      39  37  93 W3        30.18R FOG
GOLDN TRIANGLE CLEAR     43  37  81 N5        30.14S
STARKVILLE     FAIR      41  41 100 CALM      30.14S
TUPELO         CLEAR     41  39  93 NE7       30.16F
$$

MSZ040-058-231000-
CENTRAL MISSISSIPPI

CITY           SKY/WX    TMP DP  RH WIND       PRES   REMARKS
JACKSON INTL   CLEAR     45  43  93 NE5       30.11F
JACKSON HAWKNS CLEAR     47  44  90 E3        30.11F
MERIDIAN KEY   CLEAR     43  41  93 CALM      30.12S
MERIDIAN NAS   CLEAR     45  42  89 CALM      30.13R
RAYMOND        HAZE      43  37  81 CALM      30.12S VSB 1/4
VICKSBURG      CLEAR     46  45  96 N3        30.12F
$$

MSZ059>079-231000-
SOUTH MISSISSIPPI

CITY           SKY/WX    TMP DP  RH WIND       PRES   REMARKS
BROOKHAVEN     FAIR      45  45 100 CALM      30.12S
COLUMBIA         N/A    N/A N/A N/A MISG        N/A
HATTIESBURG    CLEAR     45  44  97 CALM      30.11S
MCCOMB         CLEAR     53  45  74 NE6       30.09F
NATCHEZ        CLEAR     46  43  87 CALM      30.11S
PINE BELT      CLEAR     48  41  76 N7        30.11S
$$

MSZ080>082-231000-
COASTAL MISSISSIPPI

CITY           SKY/WX    TMP DP  RH WIND       PRES   REMARKS
BILOXI         CLEAR     53  46  78 NE7       30.06F
PASCAGOULA     CLEAR     42  42 100 CALM      30.07S
GULFPORT       CLEAR     53  45  74 NE6       30.06S
$$



USA.gov is the U.S. government's official web portal to all federal, state and local government web resources and services.